Regional Weather Roundup
Issued by NWS

Home | Current Version | Previous Version | Graphics & Text | Print | Product List | Glossary On
Versions: 1 2 3 4 5 6 7 8 9 10 11 12 13 14 15 16 17 18 19 20 21 22 23 24 25 26 27 28 29 30 31 32 33 34 35 36 37 38 39 40 41 42 43 44 45 46 47 48 49 50
963
ASUS43 KFSD 011402
RWRSD

WEATHER ROUNDUP FOR SOUTH DAKOTA
NATIONAL WEATHER SERVICE SIOUX FALLS SD
900 AM CDT SAT OCT 01 2016

NOTE: "FAIR" INDICATES FEW OR NO CLOUDS BELOW 12,000 FEET WITH NO
SIGNIFICANT WEATHER AND/OR OBSTRUCTIONS TO VISIBILITY.


SDZ001>005-009-010-012>017-011500-
NORTHWEST AND NORTH CENTRAL SOUTH DAKOTA

CITY           SKY/WX    TMP DP  RH WIND       PRES   REMARKS
BUFFALO          N/A     51  47  86 CALM      29.94R
FAITH            N/A     55  47  74 SE10      29.99R
MOBRIDGE       CLOUDY    61  46  57 SE18      29.99S
$$

SDZ012>016-024>037-041>051-057-063-072>074-011500-
SOUTHWEST AND SOUTH CENTRAL SOUTH DAKOTA

CITY           SKY/WX    TMP DP  RH WIND       PRES   REMARKS
RAPID CTY ARPT SUNNY     56  50  80 CALM      30.01R
PIERRE         CLOUDY    58  45  62 SE14      30.01F
CUSTER         SUNNY     53  44  71 NW5       30.12S
ELLSWORTH AFB  SUNNY     57  51  78 W1        30.00S
PHILIP         CLOUDY    57  48  72 SE6       30.00R
PINE RIDGE     SUNNY     56  47  71 SW12      30.03S
WINNER         FAIR      60  45  57 S15       30.05F
$$

SDZ004>011-016>023-039-040-011500-
NORTHEAST SOUTH DAKOTA

CITY           SKY/WX    TMP DP  RH WIND       PRES   REMARKS
ABERDEEN       MOSUNNY   56  50  80 SE13      30.10S
WATERTOWN      SUNNY     55  50  83 SE6       30.15F
SISSETON         N/A     52  48  86 S6        30.15S
$$

SDZ017-020-022-023-036>040-048>070-011500-
SOUTHEAST SOUTH DAKOTA

CITY           SKY/WX    TMP DP  RH WIND       PRES   REMARKS
SIOUX FALLS    CLOUDY    56  52  86 CALM      30.16F
HURON          MOSUNNY   55  50  83 S12       30.11S
CHAMBERLAIN    CLOUDY    58  48  69 SE6       30.08S
MITCHELL       SUNNY     51  48  89 SE9       30.13F
YANKTON        CLOUDY    52  50  93 CALM      30.13S
$$

ABBREVIATIONS USED IN REMARKS
   TC - TEMPERATURE IN CELSIUS
  WCI - WIND CHILL INDEX
   HX - HEAT INDEX
  VSB - VISIBILITY





USA.gov is the U.S. government's official web portal to all federal, state and local government web resources and services.